User: anonymous   Login
Location: Unspecified
(0.0000°N, 0.0000°E)
Time: 09:56:59
(UTC+02:00)
Language:

Centaur AC-64 - Orbit

View from above orbital plane
View from above orbital plane
View from above satellite
View from above satellite

Ground track
Ground track

The orbit data is extracted from the following two-line orbital elements,

1 15874U 85055B   16144.52936486  .00001571  00000-0  89092-3 0  9992
2 15874  23.2667 316.2253 6577626 167.1751 225.4206  3.17836743318029
Epoch (UTC): 23 May 2016 12:42:17
Eccentricity: 0.6577626
inclination: 23.2667°
perigee height: 309 km
apogee height: 26015 km
right ascension of ascending node: 316.2253°
argument of perigee: 167.1751°
revolutions per day: 3.17836743
mean anomaly at epoch: 225.4206°
orbit number at epoch: 31802

The dashed part of the orbit path shows where the satellite is in the earth's shadow,  

DLR